Regional Weather Roundup
Issued by NWS Charleston, SC

Current Version | Previous Version | Text Only | Print | Product List | Glossary Off
Versions: 1 2 3 4 5 6 7 8 9 10 11 12 13 14 15 16 17 18 19 20 21 22 23 24 25 26 27 28 29 30 31 32 33 34 35 36 37 38 39 40 41 42 43 44 45 46 47 48 49 50

000
ASUS42 KCHS 222310
RWRCHS
REGIONAL WEATHER ROUNDUP
NATIONAL WEATHER SERVICE CHARLESTON SC
700 PM EDT TUE JUL 22 2014

NOTE: "FAIR" INDICATES FEW OR NO CLOUDS BELOW 12,000 FEET WITH NO
SIGNIFICANT WEATHER AND/OR OBSTRUCTIONS TO VISIBILITY.

NOT ALL STATIONS ARE QUALITY CONTROLLED BY THE NATIONAL
WEATHER SERVICE. USE DATA WITH CAUTION...ESPECIALLY
DEWPOINT OBSERVATIONS.

SCZ027-030-031-034>040-042>050-230000-
...SOUTH CAROLINA...

CITY           SKY/WX    TMP DP  RH WIND       PRES   REMARKS
N CHARLESTON   PTSUNNY   85  73  67 SE10      30.06F HX  91
WATERFRONT PRK   N/A     81 N/A N/A SE10        N/A
FORT JOHNSON   NOT AVBL
MOUNT PLEASANT DRIZZLE   82  75  78 SE5       30.07R
JOHNS ISLAND   CLEAR     82  66  57 SE3       30.06S
PINOPOLIS        N/A     88  75  66 SE2       29.99R HX  97
MONCKS CORNER    N/A     84  77  79 S5        30.06R HX  94
SUMMERVILLE    FAIR      82  75  78 SE3       30.06S
BEAUFORT MCAS  PTSUNNY   84  75  74 S9        30.05R HX  92
BEAUFORT ARPT  FAIR      82  77  83 SE5       30.05R HX  91
HILTON HEAD IS MOSUNNY   82  73  74 SE3       30.06S
GEORGETOWN     NOT AVBL
WALTERBORO     MOCLDY    86  72  62 E5        30.06S HX  92
ORANGEBURG     PTSUNNY   83  71  67 SE8       30.06S
BARNWELL       FAIR      82  73  74 SE7       30.05R
AIKEN          FAIR      77  77 100 NE6       30.11R
MANNING        FAIR      81 N/A N/A MISG      30.07R
KINGSTREE      NOT AVBL
COLUMBIA       PTSUNNY   86  73  65 E7        30.06R HX  93
SUMTER         PTSUNNY   83  74  73 SE6       30.06F HX  90
FLORENCE       CLOUDY    85  73  67 SE3       30.06S HX  91
MYRTLE BEACH   MOSUNNY   82  75  78 S8        30.06S
N MYRTLE BEACH CLOUDY    81  77  88 E5        30.06F

$$

GAZ063-065-086>088-099>101-113>116-118-119-134-136>141-150-230000-
...GEORGIA...

CITY           SKY/WX    TMP DP  RH WIND       PRES   REMARKS
SAVANNAH ARPT  PTSUNNY   85  72  65 SE10      30.05R HX  91
HUNTER AAF     MOSUNNY   84  74  71 SE9       30.04F HX  91
FORT STEWART   PTSUNNY   81  74  77 VRB1      30.04F
STATESBORO     NOT AVBL
SYLVANIA       CLEAR     90  75  61 CALM      30.04S HX 100
CLAXTON        CLOUDY    77  77 100 N5        30.05F
THOMSON        SUNNY     86  78  76 NE3       30.11R HX  99
AUGUSTA-BUSH   MOSUNNY   86  70  58 MISG      30.04R HX  90
AUGUSTA-DANIEL MOSUNNY   86  72  62 N9        30.07R HX  92
SWAINSBORO     CLOUDY    79  79 100 NW5       30.07F
VIDALIA          N/A     82  75  78 N6        30.06R
ALMA           PTSUNNY   87  72  60 VRB3      30.04S HX  93
WAYCROSS       CLOUDY    81  79  93 NE3       30.04S HX  90
JESUP          NOT AVBL
BRUNSWICK      PTSUNNY   84  73  70 CALM      30.05S HX  91
SAINT SIMONS   PTSUNNY   82  74  76 SE12      30.04F

$$

SCZ027-028-034-036>038-045-046-048>050-GAZ119-141-230000-
...LAKE AND SUPPLEMENTAL COASTAL OBSERVATIONS...

STATION/POSITION TIME  TEMP    WIND        PRES    WAVE   SWELL
                       AIR SEA DIR/SP/G            HT/PER HT/PER/DIR
                 (UTC) (F)     (DEG/KT/KT) (MB)    (FT/S) (FT/S/D)
UPR LAKE MARION  NOT AVBL
WINYAH BAY       2200   82      90/  5     1018.0S
LAKE MURRAY      2200   80     130/  9/ 11 1017.3S
ACE BASIN NERRS  2200   85     150/  3     1018.0S
FORT PULASKI     2300   82     130/  7/  9 1017.7R
SAPELO ISLAND    NOT AVBL

$$

ANZ835-935-AMZ111-154-330-350-352-354-374-450-454-472-230000-
...C-MAN AND BUOY OBSERVATIONS...

STATION/POSITION TIME  TEMP    WIND        PRES    WAVE   SWELL
                       AIR SEA DIR/SP/G            HT/PER HT/PER/DIR
                 (UTC) (F)     (DEG/KT/KT) (MB)    (FT/S) (FT/S/D)
FOLLY BEACH CMAN 2200   81     130/  6/  8 1018.2F
BUOY 41004       2300   79 82  130/  6/  6 1017.9R   3/ 8   3/ 8
BUOY 41008       2300   81 85  130/ 10/ 12 1017.5R   2/ 8   2/ 90/ 8
5E ST. MARYS GA  2300      85                N/A     2/ 7
FRYING PAN BUOY  NOT AVBL
BUOY 41025       2300          VRB 14/ 16  1019.5R   4/ 8   2/100/ 8
CAPE LOOKOUT NC  2200   79     180/ 15/ 16 1019.0F
BUOY 41002       2156   82 83  190/ 10/ 14 1021.5R   3/ 8   3/120/ 8
BUOY 41010       2300   81 83  150/ 12/ 16 1018.3R   4/ 6   3/140/ 6
BUOY 41012       NOT AVBL
ST AUGUSTINE FL  2300   81     110/  9/ 10 1017.9F
CAPERS NEARSHORE 2200   81     130/  6/  8   N/A
FRIPP NEARSHORE  NOT AVBL


$$



USA.gov is the U.S. government's official web portal to all federal, state and local government web resources and services.